Find AMSAT-OSCAR-95

NORAD ID: 43770 Int'l Des: 2018-099 Owner: AMNA Country: US operational
LEOCIRCULARRETROGRADESSO

实时位置

正在加载3D地球...

关于 AMSAT-OSCAR-95

正在加载描述...

即将过境

Passes for default location (London). Set your location on the main map for personalized predictions.

高度历史

Loading altitude history...

两行轨道根数

1 43770U 18099N 26131.10130148 .00007590 00000-0 29846-3 0 9992
2 43770 97.4408 191.5040 0010413 116.7346 243.4959 15.25898855407566
Epoch: May 11, 2026 • Age: 9 hours

当前状态

高度 506.0 km
速度 7.61 km/s
星下点 -31.44°S, 151.13°E
发射日期 Dec 3, 2018
运行时间 7.4 years
类型 other

技术详情

分类 Payload
质量 1.00 kg
干质量 1.00 kg
总质量 1.00 kg
长度 0.10 m
直径 0.10 m
跨度 0.10 m
形状 Box
制造商 AMNA
平台类型 Cubesat 1U
阶段状态 In Orbit
所有者/国家 AMNA/US

Most Searched